Weather History for Clinton, MO

Change the Weather History Date:

Monday, May 13, 2013

  Actual Average (KSZL) Record (KSZL)
Temperature  
Mean Temperature 62 °F -  
Max Temperature 77 °F 73 °F 87 °F (1998)
Min Temperature 46 °F 53 °F 39 °F (1997)
Degree Days  
Heating Degree Days 4    
Growing Degree Days 12 (Base 50)    
Moisture  
Dew Point 49 °F    
Average Humidity 65    
Maximum Humidity 93    
Minimum Humidity 38    
Precipitation  
Precipitation 0.00 in - - ()
Sea Level Pressure  
Sea Level Pressure 30.11 in    
Wind  
Wind Speed 3 mph (SSE)    
Max Wind Speed 12 mph    
Max Gust Speed 17 mph    
Visibility 9 miles    
Events      
Averages and records for this station are not official NWS values.
T = Trace of Precipitation, MM = Missing Value Source: NWS Daily Summary

Daily Weather History Graph

Daily Weather History Graph

Search for Another Location

Airport:

Trip Planner

Search our weather history database for the weather conditions in past years. The results will help you decide how hot, cold, wet, or windy it might be!

Date:

Astronomy

May. 13, 2013 Rise Set
Actual Time 6:05 AM CDT 8:17 PM CDT
Civil Twilight 5:35 AM CDT 8:47 PM CDT
Nautical Twilight 4:59 AM CDT 9:23 PM CDT
Astronomical Twilight 4:19 AM CDT 10:03 PM CDT
Moon 8:51 AM CDT (5/13) 11:27 PM CDT (5/13)
Length of Visible Light 15h 11m
Length of Day
14h 12m
Waxing Crescent, 12% of the Moon is Illuminated
May 13
Waxing Crescent
May 17
First Quarter
May 24
Full
May 31
Last Quarter
Jun 8
New

Hourly Weather History & Observations

Time (CDT) Temp. Dew Point Humidity Pressure Visibility Wind Dir Wind Speed Gust Speed Precip Events Conditions
12:35 AM 51.8 °F 44.6 °F 76% 30.19 in 10.0 mi Calm Calm - N/A   Mostly Cloudy
12:55 AM 50.0 °F 44.6 °F 82% 30.19 in 10.0 mi Calm Calm - N/A   Partly Cloudy
1:15 AM 51.8 °F 46.4 °F 82% 30.18 in 10.0 mi Calm Calm - N/A   Mostly Cloudy
1:35 AM 50.0 °F 46.4 °F 87% 30.18 in 10.0 mi Calm Calm - N/A   Partly Cloudy
1:55 AM 48.2 °F 46.4 °F 93% 30.18 in 10.0 mi Calm Calm - N/A   Clear
2:15 AM 48.2 °F 46.4 °F 93% 30.17 in 10.0 mi Calm Calm - N/A   Clear
2:35 AM 48.2 °F 46.4 °F 93% 30.17 in 10.0 mi Calm Calm - N/A   Clear
2:55 AM 46.4 °F 44.6 °F 93% 30.17 in 10.0 mi Calm Calm - N/A   Scattered Clouds
3:15 AM 48.2 °F 46.4 °F 93% 30.17 in 10.0 mi Calm Calm - N/A   Mostly Cloudy
3:35 AM 48.2 °F 46.4 °F 93% 30.18 in 10.0 mi Calm Calm - N/A   Mostly Cloudy
3:55 AM 48.2 °F 46.4 °F 93% 30.17 in 10.0 mi Calm Calm - N/A   Scattered Clouds
4:15 AM 46.4 °F 44.6 °F 93% 30.16 in 10.0 mi Calm Calm - N/A   Scattered Clouds
4:35 AM 46.4 °F 44.6 °F 93% 30.17 in 10.0 mi Calm Calm - N/A   Mostly Cloudy
4:55 AM 46.4 °F 44.6 °F 93% 30.17 in 10.0 mi Calm Calm - N/A   Scattered Clouds
5:15 AM 46.4 °F 44.6 °F 93% 30.17 in 10.0 mi Calm Calm - N/A   Scattered Clouds
5:35 AM 48.2 °F 46.4 °F 93% 30.18 in 10.0 mi Calm Calm - N/A   Mostly Cloudy
5:55 AM 48.2 °F 46.4 °F 93% 30.17 in 10.0 mi Calm Calm - N/A   Scattered Clouds
6:15 AM 48.2 °F 46.4 °F 93% 30.17 in 8.0 mi Calm Calm - N/A   Scattered Clouds
6:35 AM 48.2 °F 46.4 °F 93% 30.18 in 8.0 mi Calm Calm - N/A   Partly Cloudy
7:15 AM 50.0 °F 46.4 °F 87% 30.18 in 4.0 mi Calm Calm - N/A   Clear
7:35 AM 51.8 °F 48.2 °F 88% 30.18 in 4.0 mi ESE 5.8 mph - N/A   Clear
7:55 AM 53.6 °F 48.2 °F 82% 30.17 in 5.0 mi Calm Calm - N/A   Haze
8:15 AM 55.4 °F 48.2 °F 77% 30.17 in 4.0 mi SE 5.8 mph - N/A   Haze
8:35 AM 57.2 °F 46.4 °F 67% 30.18 in 10.0 mi ESE 6.9 mph - N/A   Clear
8:55 AM 59.0 °F 46.4 °F 63% 30.18 in 2.5 mi ESE 6.9 mph - N/A   Haze
9:15 AM 60.8 °F 44.6 °F 55% 30.17 in 10.0 mi SSE 10.4 mph - N/A   Clear
9:35 AM 62.6 °F 44.6 °F 52% 30.17 in 10.0 mi SSE 10.4 mph - N/A   Clear
9:55 AM 64.4 °F 44.6 °F 49% 30.17 in 5.0 mi SE 10.4 mph - N/A   Haze
10:15 AM 64.4 °F 44.6 °F 49% 30.16 in 3.0 mi SE 10.4 mph - N/A   Haze
10:35 AM 66.2 °F 46.4 °F 49% 30.15 in 8.0 mi ESE 6.9 mph - N/A   Clear
10:55 AM 66.2 °F 48.2 °F 52% 30.15 in 8.0 mi East 8.1 mph - N/A   Clear
11:15 AM 69.8 °F 46.4 °F 43% 30.15 in 8.0 mi SE 9.2 mph - N/A   Clear
11:35 AM 69.8 °F 46.4 °F 43% 30.14 in 10.0 mi SSE 9.2 mph - N/A   Clear
11:55 AM 71.6 °F 46.4 °F 41% 30.14 in 10.0 mi SE 10.4 mph - N/A   Clear
12:15 PM 71.6 °F 48.2 °F 43% 30.13 in 10.0 mi South 9.2 mph 17.3 mph N/A   Clear
12:35 PM 71.6 °F 48.2 °F 43% 30.12 in 10.0 mi South 10.4 mph 16.1 mph N/A   Clear
12:55 PM 73.4 °F 48.2 °F 41% 30.11 in 10.0 mi SSE 10.4 mph - N/A   Clear
1:15 PM 73.4 °F 50.0 °F 44% 30.11 in 10.0 mi South 8.1 mph - N/A   Clear
1:35 PM 73.4 °F 48.2 °F 41% 30.10 in 10.0 mi SSW 6.9 mph - N/A   Clear
1:55 PM 73.4 °F 50.0 °F 44% 30.10 in 10.0 mi SSE 10.4 mph - N/A   Clear
2:15 PM 75.2 °F 48.2 °F 38% 30.10 in 10.0 mi SSE 10.4 mph - N/A   Clear
2:35 PM 75.2 °F 48.2 °F 38% 30.09 in 10.0 mi South 9.2 mph - N/A   Clear
2:55 PM 75.2 °F 50.0 °F 41% 30.09 in 7.0 mi South 10.4 mph 17.3 mph N/A   Clear
3:55 PM 75.2 °F 51.8 °F 44% 30.07 in 10.0 mi SSW 10.4 mph - N/A   Clear
4:15 PM 75.2 °F 51.8 °F 44% 30.06 in 10.0 mi SSW 11.5 mph - N/A   Clear
4:35 PM 75.2 °F 51.8 °F 44% 30.06 in 10.0 mi South 9.2 mph - N/A   Clear
4:55 PM 75.2 °F 53.6 °F 47% 30.06 in 10.0 mi South 5.8 mph - N/A   Clear
5:15 PM 75.2 °F 53.6 °F 47% 30.05 in 10.0 mi South 8.1 mph - N/A   Clear
5:35 PM 77.0 °F 53.6 °F 44% 30.04 in 10.0 mi SSW 4.6 mph - N/A   Clear
5:55 PM 77.0 °F 55.4 °F 47% 30.03 in 10.0 mi South 8.1 mph - N/A   Clear
6:35 PM 77.0 °F 55.4 °F 47% 30.02 in 10.0 mi SSW 6.9 mph - N/A   Clear
7:15 PM 75.2 °F 55.4 °F 50% 30.01 in 10.0 mi SSW 5.8 mph - N/A   Clear
7:35 PM 73.4 °F 55.4 °F 53% 30.02 in 10.0 mi Calm Calm - N/A   Clear
7:55 PM 73.4 °F 55.4 °F 53% 30.02 in 9.0 mi Calm Calm - N/A   Clear
8:15 PM 71.6 °F 55.4 °F 57% 30.02 in 10.0 mi Calm Calm - N/A   Clear
8:35 PM 71.6 °F 55.4 °F 57% 30.01 in 10.0 mi Calm Calm - N/A   Clear
8:55 PM 69.8 °F 55.4 °F 60% 30.01 in 10.0 mi Calm Calm - N/A   Clear
9:15 PM 69.8 °F 55.4 °F 60% 30.01 in 10.0 mi Calm Calm - N/A   Clear
9:35 PM 68.0 °F 55.4 °F 64% 30.01 in 10.0 mi Calm Calm - N/A   Clear
9:55 PM 66.2 °F 55.4 °F 68% 30.01 in 10.0 mi Calm Calm - N/A   Clear
10:15 PM 64.4 °F 55.4 °F 73% 30.01 in 10.0 mi Calm Calm - N/A   Clear
10:35 PM 66.2 °F 55.4 °F 68% 30.01 in 10.0 mi South 4.6 mph - N/A   Clear
10:55 PM 64.4 °F 55.4 °F 73% 30.00 in 10.0 mi South 4.6 mph - N/A   Clear
11:15 PM 64.4 °F 55.4 °F 73% 30.00 in 10.0 mi South 3.5 mph - N/A   Clear
11:35 PM 62.6 °F 55.4 °F 77% 29.99 in 10.0 mi South 6.9 mph - N/A   Clear
11:55 PM 62.6 °F 55.4 °F 77% 29.99 in 10.0 mi South 5.8 mph - N/A   Clear